This is the latest recevied weather packets stored in our database for station/object KJ4EWA. If no packets are shown the sender has not sent any weather packets the latest 10 day(s).
| Time | Temp. | Humidity | Pressure | Rain* | Wind** | Luminosity | Snow |
|---|---|---|---|---|---|---|---|
| 1778176372 | 22.22° C | 99% | 1017.1 hPa | 0 mm | - | 161 W/m² | - |
| 1778176069 | 21.67° C | 99% | 1017.4 hPa | 0 mm | - | 157 W/m² | - |
| 1778175767 | 21.67° C | 99% | 1017.5 hPa | 0 mm | - | 16 W/m² | - |
| 1778175464 | 21.67° C | 99% | 1017.5 hPa | 0 mm | - | 17 W/m² | - |
| 1778175161 | 21.67° C | 99% | 1017.3 hPa | 0 mm | - | 33 W/m² | - |
| 1778174857 | 21.67° C | 99% | 1017.2 hPa | 0 mm | - | 48 W/m² | - |
| 1778174549 | 21.67° C | 99% | 1017.4 hPa | 0 mm | - | 42 W/m² | - |
| 1778174249 | 21.67° C | 99% | 1017.1 hPa | 0 mm | - | 42 W/m² | - |
| 1778173947 | 21.67° C | 99% | 1017.2 hPa | 0 mm | - | 45 W/m² | - |
| 1778173643 | 21.67° C | 99% | 1017.4 hPa | 0 mm | - | 92 W/m² | - |
| 1778173340 | 21.67° C | 99% | 1017 hPa | 0 mm | - | 154 W/m² | - |
| 1778173036 | 21.67° C | 99% | 1016.9 hPa | 0 mm | - | 143 W/m² | - |
| 1778172732 | 21.67° C | 99% | 1016.7 hPa | 0 mm | - | 62 W/m² | - |
| 1778172428 | 22.22° C | 99% | 1018 hPa | 0 mm | - | 22 W/m² | - |
| 1778172126 | 22.78° C | 99% | 1017.4 hPa | 0 mm | - | 20 W/m² | - |
| 1778171823 | 22.22° C | 99% | 1017.4 hPa | 0 mm | - | 17 W/m² | - |
| 1778171521 | 22.78° C | 99% | 1017.4 hPa | 0 mm | - | 21 W/m² | - |
| 1778171215 | 22.22° C | 99% | 1017.3 hPa | 0 mm | - | 53 W/m² | - |
| 1778170907 | 22.22° C | 99% | 1017.1 hPa | 0 mm | - | 66 W/m² | - |
| 1778170603 | 22.22° C | 99% | 1016.8 hPa | 0 mm | - | 54 W/m² | - |
| 1778170299 | 21.67° C | 99% | 1017.2 hPa | 0 mm | - | 65 W/m² | - |
| 1778169996 | 21.67° C | 99% | 1017.1 hPa | 0 mm | - | 51 W/m² | - |
| 1778169693 | 21.67° C | 99% | 1017.6 hPa | 0 mm | - | 60 W/m² | - |
| 1778169388 | 21.67° C | 99% | 1017.9 hPa | 0 mm | - | 70 W/m² | - |
| 1778169085 | 21.11° C | 99% | 1017.4 hPa | 0 mm | - | 22 W/m² | - |
* Rain latest hour (hover to see other rain measurements)
** Current wind speed in m/s (hover to see current wind gust speed)